Time,TemperatureF,DewpointF,PressureIn,WindDirection,WindDirectionDegrees,WindSpeedMPH,WindSpeedGustMPH,Humidity,HourlyPrecipIn,Conditions,Clouds,dailyrainin,SoftwareType,DateUTC
2013-01-06 00:00:00,38.5,29.3,30.17,North,0,0.4,0.4,69,0.00,,,0.00,WUHU216HW,2013-01-06 05:00:00,
2013-01-06 00:01:00,38.5,29.3,30.17,North,0,0.4,0.4,69,0.00,,,0.00,WUHU216HW,2013-01-06 05:01:00,
2013-01-06 00:03:00,38.5,29.6,30.17,North,0,0.0,0.4,70,0.00,,,0.00,WUHU216HW,2013-01-06 05:03:00,
2013-01-06 00:08:00,38.5,29.6,30.16,North,0,0.4,0.4,70,0.00,,,0.00,WUHU216HW,2013-01-06 05:08:00,
2013-01-06 00:13:00,38.5,29.6,30.17,NW,315,0.0,0.4,70,0.00,,,0.00,WUHU216HW,2013-01-06 05:13:00,
2013-01-06 00:18:00,38.5,29.6,30.17,NNE,23,0.4,0.7,70,0.00,,,0.00,WUHU216HW,2013-01-06 05:18:00,
2013-01-06 00:23:00,38.5,29.6,30.17,NNE,23,0.0,0.7,70,0.00,,,0.00,WUHU216HW,2013-01-06 05:23:00,
2013-01-06 00:28:00,38.7,29.8,30.16,ESE,113,0.0,1.1,70,0.00,,,0.00,WUHU216HW,2013-01-06 05:28:00,
2013-01-06 00:33:00,38.7,30.1,30.16,NNE,23,0.0,1.1,71,0.00,,,0.00,WUHU216HW,2013-01-06 05:33:00,
2013-01-06 00:38:00,38.7,30.1,30.16,NNE,23,1.1,1.1,71,0.00,,,0.00,WUHU216HW,2013-01-06 05:38:00,
2013-01-06 00:43:00,38.7,30.1,30.16,West,270,0.2,1.1,71,0.00,,,0.00,WUHU216HW,2013-01-06 05:43:00,
2013-01-06 00:48:00,38.7,30.1,30.16,North,0,0.9,1.6,71,0.00,,,0.00,WUHU216HW,2013-01-06 05:48:00,
2013-01-06 00:53:00,38.9,30.2,30.15,NE,45,0.0,1.6,71,0.00,,,0.00,WUHU216HW,2013-01-06 05:53:00,
2013-01-06 00:58:00,38.9,29.9,30.16,NNE,23,1.3,2.0,70,0.00,,,0.00,WUHU216HW,2013-01-06 05:58:00,
2013-01-06 01:03:00,39.1,30.4,30.16,North,0,0.7,2.0,71,0.00,,,0.00,WUHU216HW,2013-01-06 06:03:00,
2013-01-06 01:08:00,39.1,30.4,30.16,NNE,23,0.4,1.6,71,0.00,,,0.00,WUHU216HW,2013-01-06 06:08:00,
2013-01-06 01:13:00,39.2,30.6,30.17,NNE,23,0.7,1.8,71,0.00,,,0.00,WUHU216HW,2013-01-06 06:13:00,
2013-01-06 01:18:00,39.2,30.6,30.17,ENE,68,0.0,1.8,71,0.00,,,0.00,WUHU216HW,2013-01-06 06:18:00,
2013-01-06 01:23:00,39.2,30.6,30.17,North,0,0.0,1.3,71,0.00,,,0.00,WUHU216HW,2013-01-06 06:23:00,
2013-01-06 01:28:00,39.2,30.2,30.17,NNE,23,0.0,1.3,70,0.00,,,0.00,WUHU216HW,2013-01-06 06:28:00,
2013-01-06 01:33:00,39.2,30.2,30.17,NE,45,0.0,1.3,70,0.00,,,0.00,WUHU216HW,2013-01-06 06:33:00,
2013-01-06 01:38:00,39.2,30.2,30.17,NE,45,1.1,1.1,70,0.00,,,0.00,WUHU216HW,2013-01-06 06:38:00,
2013-01-06 01:43:00,39.2,30.2,30.16,NE,45,0.4,1.1,70,0.00,,,0.00,WUHU216HW,2013-01-06 06:43:00,
2013-01-06 01:48:00,39.2,30.2,30.16,ENE,68,0.2,1.1,70,0.00,,,0.00,WUHU216HW,2013-01-06 06:48:00,
2013-01-06 01:54:00,39.2,30.2,30.17,North,0,1.8,1.8,70,0.00,,,0.00,WUHU216HW,2013-01-06 06:54:00,
2013-01-06 01:58:00,39.2,30.2,30.16,NE,45,0.0,1.8,70,0.00,,,0.00,WUHU216HW,2013-01-06 06:58:00,
2013-01-06 02:04:00,39.2,30.2,30.16,NE,45,0.0,1.1,70,0.00,,,0.00,WUHU216HW,2013-01-06 07:04:00,
2013-01-06 02:09:00,39.2,30.2,30.15,NE,45,0.0,0.0,70,0.00,,,0.00,WUHU216HW,2013-01-06 07:09:00,
2013-01-06 02:14:00,39.2,30.2,30.16,NE,45,0.0,0.4,70,0.00,,,0.00,WUHU216HW,2013-01-06 07:14:00,
2013-01-06 02:19:00,39.2,30.2,30.15,NNE,23,0.0,0.4,70,0.00,,,0.00,WUHU216HW,2013-01-06 07:19:00,
2013-01-06 02:24:00,39.2,30.2,30.15,NNE,23,0.0,0.0,70,0.00,,,0.00,WUHU216HW,2013-01-06 07:24:00,
2013-01-06 02:29:00,39.2,30.6,30.16,ESE,113,0.0,0.7,71,0.00,,,0.00,WUHU216HW,2013-01-06 07:29:00,
2013-01-06 02:34:00,39.1,30.1,30.16,ESE,113,0.0,0.7,70,0.00,,,0.00,WUHU216HW,2013-01-06 07:34:00,
2013-01-06 02:39:00,39.1,30.4,30.15,East,90,0.0,0.2,71,0.00,,,0.00,WUHU216HW,2013-01-06 07:39:00,
2013-01-06 02:44:00,39.1,30.4,30.14,WSW,248,0.4,0.4,71,0.00,,,0.00,WUHU216HW,2013-01-06 07:44:00,
2013-01-06 02:49:00,39.1,30.4,30.15,SSW,203,0.4,0.4,71,0.00,,,0.00,WUHU216HW,2013-01-06 07:49:00,
2013-01-06 02:54:00,39.1,30.4,30.14,SW,225,0.0,0.9,71,0.00,,,0.00,WUHU216HW,2013-01-06 07:54:00,
2013-01-06 02:59:00,39.2,30.6,30.13,SW,225,0.0,0.9,71,0.00,,,0.00,WUHU216HW,2013-01-06 07:59:00,
2013-01-06 03:04:00,39.2,30.6,30.13,SW,225,0.0,0.0,71,0.00,,,0.00,WUHU216HW,2013-01-06 08:04:00,
2013-01-06 03:09:00,39.2,30.6,30.13,SW,225,0.0,0.0,71,0.00,,,0.00,WUHU216HW,2013-01-06 08:09:00,
2013-01-06 03:14:00,39.1,30.4,30.13,SW,225,0.0,0.0,71,0.00,,,0.00,WUHU216HW,2013-01-06 08:14:00,
2013-01-06 03:19:00,39.1,30.4,30.12,SW,225,0.0,0.0,71,0.00,,,0.00,WUHU216HW,2013-01-06 08:19:00,
2013-01-06 03:24:00,38.9,30.2,30.12,West,270,0.0,0.0,71,0.00,,,0.00,WUHU216HW,2013-01-06 08:24:00,
2013-01-06 03:29:00,38.9,30.2,30.12,West,270,0.0,0.0,71,0.00,,,0.00,WUHU216HW,2013-01-06 08:29:00,
2013-01-06 03:34:00,38.9,30.2,30.12,West,270,0.0,0.0,71,0.00,,,0.00,WUHU216HW,2013-01-06 08:34:00,
2013-01-06 03:39:00,38.9,30.2,30.12,West,270,0.0,0.0,71,0.00,,,0.00,WUHU216HW,2013-01-06 08:39:00,
2013-01-06 03:44:00,38.9,30.2,30.12,West,270,0.0,0.0,71,0.00,,,0.00,WUHU216HW,2013-01-06 08:44:00,
2013-01-06 03:49:00,38.9,30.6,30.12,West,270,0.0,0.0,72,0.00,,,0.00,WUHU216HW,2013-01-06 08:49:00,
2013-01-06 03:54:00,38.9,30.6,30.12,West,270,0.0,0.0,72,0.00,,,0.00,WUHU216HW,2013-01-06 08:54:00,
2013-01-06 03:59:00,38.9,30.6,30.12,West,270,0.0,0.0,72,0.00,,,0.00,WUHU216HW,2013-01-06 08:59:00,
2013-01-06 04:04:00,38.7,30.4,30.12,West,270,0.0,0.0,72,0.00,,,0.00,WUHU216HW,2013-01-06 09:04:00,
2013-01-06 04:09:00,38.5,30.2,30.11,West,270,0.0,0.0,72,0.00,,,0.00,WUHU216HW,2013-01-06 09:09:00,
2013-01-06 04:14:00,38.5,30.2,30.12,WNW,293,0.0,0.0,72,0.00,,,0.00,WUHU216HW,2013-01-06 09:14:00,
2013-01-06 04:19:00,38.5,30.2,30.12,WNW,293,0.0,0.0,72,0.00,,,0.00,WUHU216HW,2013-01-06 09:19:00,
2013-01-06 04:24:00,38.5,30.2,30.12,WNW,293,0.0,0.0,72,0.00,,,0.00,WUHU216HW,2013-01-06 09:24:00,
2013-01-06 04:29:00,38.5,30.2,30.12,WNW,293,0.0,0.0,72,0.00,,,0.00,WUHU216HW,2013-01-06 09:29:00,
2013-01-06 04:34:00,38.3,30.1,30.12,WNW,293,0.0,0.0,72,0.00,,,0.00,WUHU216HW,2013-01-06 09:34:00,
2013-01-06 04:39:00,38.2,30.0,30.12,WNW,293,0.0,0.0,72,0.00,,,0.00,WUHU216HW,2013-01-06 09:39:00,
2013-01-06 04:40:00,38.2,30.0,30.12,WNW,293,0.0,0.0,72,0.00,,,0.00,WUHU216HW,2013-01-06 09:40:00,
2013-01-06 04:45:00,38.2,30.0,30.12,WNW,293,0.0,0.0,72,0.00,,,0.00,WUHU216HW,2013-01-06 09:45:00,
2013-01-06 04:50:00,38.2,30.0,30.12,WNW,293,0.0,0.0,72,0.00,,,0.00,WUHU216HW,2013-01-06 09:50:00,
2013-01-06 05:00:00,36.7,28.9,30.12,WNW,293,0.0,0.0,73,0.00,,,0.00,WUHU216HW,2013-01-06 10:00:00,
2013-01-06 05:05:00,36.5,28.7,30.12,West,270,0.0,0.0,73,0.00,,,0.00,WUHU216HW,2013-01-06 10:05:00,
2013-01-06 05:10:00,36.2,28.4,30.12,West,270,0.0,0.0,73,0.00,,,0.00,WUHU216HW,2013-01-06 10:10:00,
2013-01-06 05:15:00,36.0,28.2,30.11,West,270,0.0,0.0,73,0.00,,,0.00,WUHU216HW,2013-01-06 10:15:00,
2013-01-06 05:20:00,35.6,27.8,30.11,West,270,0.0,0.0,73,0.00,,,0.00,WUHU216HW,2013-01-06 10:20:00,
2013-01-06 05:25:00,35.5,27.6,30.11,West,270,0.0,0.0,73,0.00,,,0.00,WUHU216HW,2013-01-06 10:25:00,
2013-01-06 05:30:00,35.1,27.3,30.11,WNW,293,0.0,0.0,73,0.00,,,0.00,WUHU216HW,2013-01-06 10:30:00,
2013-01-06 05:35:00,34.9,27.4,30.11,WNW,293,0.0,0.0,74,0.00,,,0.00,WUHU216HW,2013-01-06 10:35:00,
2013-01-06 05:40:00,34.6,27.0,30.11,WNW,293,0.0,0.0,74,0.00,,,0.00,WUHU216HW,2013-01-06 10:40:00,
2013-01-06 05:45:00,34.4,27.2,30.11,WNW,293,0.0,0.0,75,0.00,,,0.00,WUHU216HW,2013-01-06 10:45:00,
2013-01-06 05:50:00,34.2,27.0,30.11,WNW,293,0.0,0.0,75,0.00,,,0.00,WUHU216HW,2013-01-06 10:50:00,
2013-01-06 05:55:00,33.8,26.6,30.11,WNW,293,0.0,0.0,75,0.00,,,0.00,WUHU216HW,2013-01-06 10:55:00,
2013-01-06 06:00:00,33.5,26.6,30.11,WNW,293,0.0,0.0,76,0.00,,,0.00,WUHU216HW,2013-01-06 11:00:00,
2013-01-06 06:05:00,33.5,26.6,30.11,WNW,293,0.0,0.0,76,0.00,,,0.00,WUHU216HW,2013-01-06 11:05:00,
2013-01-06 06:10:00,33.1,26.3,30.10,WNW,293,0.0,0.0,76,0.00,,,0.00,WUHU216HW,2013-01-06 11:10:00,
2013-01-06 06:15:00,33.1,26.3,30.11,WNW,293,0.0,0.0,76,0.00,,,0.00,WUHU216HW,2013-01-06 11:15:00,
2013-01-06 06:20:00,32.9,26.2,30.11,WNW,293,0.0,0.0,76,0.00,,,0.00,WUHU216HW,2013-01-06 11:20:00,
2013-01-06 06:25:00,32.8,26.3,30.10,WNW,293,0.0,0.0,77,0.00,,,0.00,WUHU216HW,2013-01-06 11:25:00,
2013-01-06 06:31:00,32.8,26.3,30.11,WNW,293,0.0,0.0,77,0.00,,,0.00,WUHU216HW,2013-01-06 11:31:00,
2013-01-06 06:36:00,32.8,26.3,30.11,WNW,293,0.0,0.0,77,0.00,,,0.00,WUHU216HW,2013-01-06 11:36:00,
2013-01-06 06:41:00,32.8,26.3,30.11,WNW,293,0.0,0.0,77,0.00,,,0.00,WUHU216HW,2013-01-06 11:41:00,
2013-01-06 06:46:00,32.6,26.2,30.12,WNW,293,0.0,0.0,77,0.00,,,0.00,WUHU216HW,2013-01-06 11:46:00,
2013-01-06 06:51:00,32.6,26.2,30.12,WNW,293,0.0,0.0,77,0.00,,,0.00,WUHU216HW,2013-01-06 11:51:00,
2013-01-06 06:56:00,32.4,26.0,30.12,WNW,293,0.0,0.0,77,0.00,,,0.00,WUHU216HW,2013-01-06 11:56:00,
2013-01-06 07:01:00,32.0,25.7,30.12,WNW,293,0.0,0.0,77,0.00,,,0.00,WUHU216HW,2013-01-06 12:01:00,
2013-01-06 07:06:00,31.9,25.8,30.12,WNW,293,0.0,0.0,78,0.00,,,0.00,WUHU216HW,2013-01-06 12:06:00,
2013-01-06 07:11:00,31.7,25.7,30.12,NNW,338,0.0,0.0,78,0.00,,,0.00,WUHU216HW,2013-01-06 12:11:00,
2013-01-06 07:16:00,31.3,25.3,30.12,NNW,338,0.2,0.2,78,0.00,,,0.00,WUHU216HW,2013-01-06 12:16:00,
2013-01-06 07:21:00,31.3,25.3,30.12,NNW,338,0.0,0.4,78,0.00,,,0.00,WUHU216HW,2013-01-06 12:21:00,
2013-01-06 07:26:00,31.3,25.3,30.12,NNW,338,0.4,0.4,78,0.00,,,0.00,WUHU216HW,2013-01-06 12:26:00,
2013-01-06 07:31:00,31.3,25.3,30.12,North,0,0.0,0.4,78,0.00,,,0.00,WUHU216HW,2013-01-06 12:31:00,
2013-01-06 07:36:00,31.1,25.4,30.12,North,0,0.0,0.2,79,0.00,,,0.00,WUHU216HW,2013-01-06 12:36:00,
2013-01-06 07:41:00,31.1,25.4,30.12,North,0,0.0,0.0,79,0.00,,,0.00,WUHU216HW,2013-01-06 12:41:00,
2013-01-06 07:46:00,31.1,25.4,30.12,North,0,0.0,0.0,79,0.00,,,0.00,WUHU216HW,2013-01-06 12:46:00,
2013-01-06 07:51:00,31.1,25.4,30.12,North,0,0.0,0.0,79,0.00,,,0.00,WUHU216HW,2013-01-06 12:51:00,
2013-01-06 07:56:00,31.1,25.4,30.12,North,0,0.0,0.0,79,0.00,,,0.00,WUHU216HW,2013-01-06 12:56:00,
2013-01-06 08:01:00,31.1,25.4,30.12,North,0,0.0,0.0,79,0.00,,,0.00,WUHU216HW,2013-01-06 13:01:00,
2013-01-06 08:06:00,31.1,25.4,30.12,North,0,0.0,0.0,79,0.00,,,0.00,WUHU216HW,2013-01-06 13:06:00,
2013-01-06 08:11:00,31.3,25.9,30.11,North,0,0.0,0.0,80,0.00,,,0.00,WUHU216HW,2013-01-06 13:11:00,
2013-01-06 08:16:00,31.3,25.9,30.12,North,0,0.0,0.0,80,0.00,,,0.00,WUHU216HW,2013-01-06 13:16:00,
2013-01-06 08:21:00,31.7,26.3,30.12,North,0,0.0,0.0,80,0.00,,,0.00,WUHU216HW,2013-01-06 13:21:00,
2013-01-06 08:26:00,31.9,26.7,30.12,North,0,0.0,0.0,81,0.00,,,0.00,WUHU216HW,2013-01-06 13:26:00,
2013-01-06 08:31:00,32.0,26.9,30.12,North,0,0.0,0.7,81,0.00,,,0.00,WUHU216HW,2013-01-06 13:31:00,
2013-01-06 08:36:00,32.4,27.3,30.12,North,0,0.0,0.7,81,0.00,,,0.00,WUHU216HW,2013-01-06 13:36:00,
2013-01-06 08:41:00,32.8,27.5,30.12,North,0,0.0,0.0,81,0.00,,,0.00,WUHU216HW,2013-01-06 13:41:00,
2013-01-06 08:46:00,33.5,28.5,30.12,North,0,0.0,0.0,82,0.00,,,0.00,WUHU216HW,2013-01-06 13:46:00,
2013-01-06 08:51:00,34.0,29.4,30.12,North,0,0.0,0.0,83,0.00,,,0.00,WUHU216HW,2013-01-06 13:51:00,
2013-01-06 08:56:00,34.6,29.9,30.12,North,0,0.0,0.0,83,0.00,,,0.00,WUHU216HW,2013-01-06 13:56:00,
2013-01-06 09:01:00,35.3,30.2,30.12,North,0,0.0,0.0,82,0.00,,,0.00,WUHU216HW,2013-01-06 14:01:00,
2013-01-06 09:06:00,36.0,31.0,30.12,NW,315,0.0,0.0,82,0.00,,,0.00,WUHU216HW,2013-01-06 14:06:00,
2013-01-06 09:11:00,36.9,31.9,30.12,NW,315,0.0,0.0,82,0.00,,,0.00,WUHU216HW,2013-01-06 14:11:00,
2013-01-06 09:17:00,37.6,32.3,30.12,North,0,0.0,0.4,81,0.00,,,0.00,WUHU216HW,2013-01-06 14:17:00,
2013-01-06 09:22:00,38.7,33.1,30.12,NW,315,0.0,0.4,80,0.00,,,0.00,WUHU216HW,2013-01-06 14:22:00,
2013-01-06 09:27:00,40.0,33.9,30.12,West,270,0.4,1.6,79,0.00,,,0.00,WUHU216HW,2013-01-06 14:27:00,
2013-01-06 09:32:00,41.0,34.7,30.12,NNE,23,0.4,1.6,78,0.00,,,0.00,WUHU216HW,2013-01-06 14:32:00,
2013-01-06 09:37:00,41.6,34.8,30.12,NNE,23,0.0,0.9,77,0.00,,,0.00,WUHU216HW,2013-01-06 14:37:00,
2013-01-06 09:42:00,42.1,35.1,30.13,North,0,1.1,1.8,76,0.00,,,0.00,WUHU216HW,2013-01-06 14:42:00,
2013-01-06 09:47:00,42.3,34.9,30.13,North,0,0.2,1.8,75,0.00,,,0.00,WUHU216HW,2013-01-06 14:47:00,
2013-01-06 09:52:00,42.7,34.9,30.13,North,0,1.1,1.8,74,0.00,,,0.00,WUHU216HW,2013-01-06 14:52:00,
2013-01-06 09:57:00,42.8,35.1,30.13,NNE,23,1.1,1.8,74,0.00,,,0.00,WUHU216HW,2013-01-06 14:57:00,
2013-01-06 10:02:00,42.7,34.7,30.13,NE,45,1.1,1.8,73,0.00,,,0.00,WUHU216HW,2013-01-06 15:02:00,
2013-01-06 10:07:00,42.5,34.1,30.13,North,0,0.0,2.2,72,0.00,,,0.00,WUHU216HW,2013-01-06 15:07:00,
2013-01-06 10:12:00,42.3,33.9,30.13,NNW,338,0.0,2.2,72,0.00,,,0.00,WUHU216HW,2013-01-06 15:12:00,
2013-01-06 10:17:00,42.5,34.1,30.12,North,0,0.4,0.4,72,0.00,,,0.00,WUHU216HW,2013-01-06 15:17:00,
2013-01-06 10:22:00,42.8,34.2,30.12,NNE,23,0.0,1.1,71,0.00,,,0.00,WUHU216HW,2013-01-06 15:22:00,
2013-01-06 10:27:00,43.0,34.3,30.12,ESE,113,2.2,2.5,71,0.00,,,0.00,WUHU216HW,2013-01-06 15:27:00,
2013-01-06 10:32:00,43.2,34.2,30.12,North,0,0.0,2.5,70,0.00,,,0.00,WUHU216HW,2013-01-06 15:32:00,
2013-01-06 10:37:00,43.7,33.8,30.12,WSW,248,0.0,0.4,68,0.00,,,0.00,WUHU216HW,2013-01-06 15:37:00,
2013-01-06 10:42:00,43.9,33.7,30.12,WSW,248,0.4,0.4,67,0.00,,,0.00,WUHU216HW,2013-01-06 15:42:00,
2013-01-06 10:47:00,44.3,34.4,30.11,NW,315,0.0,2.2,68,0.00,,,0.00,WUHU216HW,2013-01-06 15:47:00,
2013-01-06 10:52:00,44.5,34.2,30.11,NNE,23,0.4,2.2,67,0.00,,,0.00,WUHU216HW,2013-01-06 15:52:00,
2013-01-06 10:57:00,44.8,34.5,30.11,NE,45,1.3,1.8,67,0.00,,,0.00,WUHU216HW,2013-01-06 15:57:00,
2013-01-06 11:02:00,45.2,34.5,30.11,East,90,0.7,2.2,66,0.00,,,0.00,WUHU216HW,2013-01-06 16:02:00,
2013-01-06 11:07:00,45.5,34.5,30.10,NE,45,0.0,2.2,65,0.00,,,0.00,WUHU216HW,2013-01-06 16:07:00,
2013-01-06 11:12:00,45.7,34.6,30.10,NNW,338,0.0,2.2,65,0.00,,,0.00,WUHU216HW,2013-01-06 16:12:00,
2013-01-06 11:17:00,45.9,34.4,30.10,NNW,338,0.0,1.1,64,0.00,,,0.00,WUHU216HW,2013-01-06 16:17:00,
2013-01-06 11:22:00,46.1,34.1,30.10,NE,45,0.4,1.1,63,0.00,,,0.00,WUHU216HW,2013-01-06 16:22:00,
2013-01-06 11:27:00,46.4,34.5,30.09,NNE,23,5.1,5.1,63,0.00,,,0.00,WUHU216HW,2013-01-06 16:27:00,
2013-01-06 11:32:00,46.6,34.7,30.09,ENE,68,1.3,5.1,63,0.00,,,0.00,WUHU216HW,2013-01-06 16:32:00,
2013-01-06 11:37:00,46.8,34.5,30.08,NNE,23,0.4,5.4,62,0.00,,,0.00,WUHU216HW,2013-01-06 16:37:00,
2013-01-06 11:42:00,47.2,34.4,30.08,WSW,248,0.4,5.4,61,0.00,,,0.00,WUHU216HW,2013-01-06 16:42:00,
2013-01-06 11:47:00,47.2,33.6,30.08,WNW,293,0.2,2.0,59,0.00,,,0.00,WUHU216HW,2013-01-06 16:47:00,
2013-01-06 11:52:00,47.2,34.4,30.07,ENE,68,0.2,1.1,61,0.00,,,0.00,WUHU216HW,2013-01-06 16:52:00,
2013-01-06 11:57:00,47.5,34.7,30.07,WSW,248,0.7,1.8,61,0.00,,,0.00,WUHU216HW,2013-01-06 16:57:00,
2013-01-06 12:02:00,47.5,33.9,30.07,NW,315,0.0,1.8,59,0.00,,,0.00,WUHU216HW,2013-01-06 17:02:00,
2013-01-06 12:07:00,47.9,34.7,30.07,NE,45,0.9,1.8,60,0.00,,,0.00,WUHU216HW,2013-01-06 17:07:00,
2013-01-06 12:12:00,48.1,34.5,30.06,NNE,23,1.1,2.9,59,0.00,,,0.00,WUHU216HW,2013-01-06 17:12:00,
2013-01-06 12:17:00,48.1,34.5,30.06,NNE,23,1.1,2.9,59,0.00,,,0.00,WUHU216HW,2013-01-06 17:17:00,
2013-01-06 12:42:00,49.3,33.8,30.04,SE,135,0.4,0.4,55,0.00,,,0.00,WUHU216HW,2013-01-06 17:42:00,
2013-01-06 12:47:00,49.5,33.5,30.04,SSW,203,0.0,2.5,54,0.00,,,0.00,WUHU216HW,2013-01-06 17:47:00,
2013-01-06 12:52:00,49.9,33.8,30.03,North,0,0.4,4.0,54,0.00,,,0.00,WUHU216HW,2013-01-06 17:52:00,
2013-01-06 12:57:00,50.4,34.4,30.03,SSE,158,1.8,4.0,54,0.00,,,0.00,WUHU216HW,2013-01-06 17:57:00,
2013-01-06 13:02:00,50.6,34.5,30.03,South,180,0.0,3.4,54,0.00,,,0.00,WUHU216HW,2013-01-06 18:02:00,
2013-01-06 13:07:00,50.6,34.5,30.03,ENE,68,0.9,1.8,54,0.00,,,0.00,WUHU216HW,2013-01-06 18:07:00,
2013-01-06 13:12:00,50.6,33.6,30.03,North,0,6.5,6.5,52,0.00,,,0.00,WUHU216HW,2013-01-06 18:12:00,
2013-01-06 13:17:00,50.4,33.9,30.03,NE,45,3.1,6.5,53,0.00,,,0.00,WUHU216HW,2013-01-06 18:17:00,
2013-01-06 13:22:00,50.8,33.3,30.02,ENE,68,0.7,3.4,51,0.00,,,0.00,WUHU216HW,2013-01-06 18:22:00,
2013-01-06 13:27:00,51.3,33.9,30.02,NE,45,2.2,3.4,51,0.00,,,0.00,WUHU216HW,2013-01-06 18:27:00,
2013-01-06 13:32:00,51.5,32.4,30.02,East,90,4.3,6.5,48,0.00,,,0.00,WUHU216HW,2013-01-06 18:32:00,
2013-01-06 13:38:00,51.5,33.5,30.02,North,0,0.9,6.5,50,0.00,,,0.00,WUHU216HW,2013-01-06 18:38:00,
2013-01-06 13:43:00,52.0,34.0,30.02,NNE,23,1.8,2.0,50,0.00,,,0.00,WUHU216HW,2013-01-06 18:43:00,
2013-01-06 13:48:00,51.8,33.8,30.02,NNW,338,0.4,2.7,50,0.00,,,0.00,WUHU216HW,2013-01-06 18:48:00,
2013-01-06 13:53:00,52.0,34.0,30.01,WSW,248,2.5,2.7,50,0.00,,,0.00,WUHU216HW,2013-01-06 18:53:00,
2013-01-06 13:58:00,52.2,34.2,30.01,North,0,1.6,3.4,50,0.00,,,0.00,WUHU216HW,2013-01-06 18:58:00,
2013-01-06 14:03:00,52.6,34.5,30.01,North,0,3.6,3.6,50,0.00,,,0.00,WUHU216HW,2013-01-06 19:03:00,
2013-01-06 14:08:00,52.7,34.7,30.01,SE,135,1.1,3.6,50,0.00,,,0.00,WUHU216HW,2013-01-06 19:08:00,
2013-01-06 14:13:00,52.6,32.9,30.01,NE,45,2.9,5.4,47,0.00,,,0.00,WUHU216HW,2013-01-06 19:13:00,
2013-01-06 14:18:00,52.6,33.9,30.00,ENE,68,1.1,5.4,49,0.00,,,0.00,WUHU216HW,2013-01-06 19:18:00,
2013-01-06 14:23:00,52.2,33.6,30.00,NNW,338,2.7,3.8,49,0.00,,,0.00,WUHU216HW,2013-01-06 19:23:00,
2013-01-06 14:28:00,52.2,33.0,30.00,NE,45,1.8,3.8,48,0.00,,,0.00,WUHU216HW,2013-01-06 19:28:00,
2013-01-06 14:33:00,52.6,33.9,30.00,North,0,2.2,8.5,49,0.00,,,0.00,WUHU216HW,2013-01-06 19:33:00,
2013-01-06 14:38:00,52.6,33.9,30.00,NNW,338,1.6,8.5,49,0.00,,,0.00,WUHU216HW,2013-01-06 19:38:00,
2013-01-06 14:43:00,52.4,33.8,30.00,North,0,4.0,4.0,49,0.00,,,0.00,WUHU216HW,2013-01-06 19:43:00,
2013-01-06 14:48:00,52.2,33.6,30.00,NNE,23,5.8,6.0,49,0.00,,,0.00,WUHU216HW,2013-01-06 19:48:00,
2013-01-06 14:53:00,52.2,33.0,30.00,SE,135,1.1,6.0,48,0.00,,,0.00,WUHU216HW,2013-01-06 19:53:00,
2013-01-06 14:58:00,52.4,33.2,30.00,NNE,23,1.3,3.6,48,0.00,,,0.00,WUHU216HW,2013-01-06 19:58:00,
2013-01-06 15:04:00,52.6,33.9,30.00,SW,225,0.0,3.6,49,0.00,,,0.00,WUHU216HW,2013-01-06 20:04:00,
2013-01-06 15:09:00,52.6,32.9,30.01,NE,45,2.7,3.4,47,0.00,,,0.00,WUHU216HW,2013-01-06 20:09:00,
2013-01-06 15:11:00,52.4,32.7,30.00,North,0,1.8,5.1,47,0.00,,,0.00,WUHU216HW,2013-01-06 20:11:00,
2013-01-06 15:13:00,52.2,32.5,30.01,East,90,1.3,5.1,47,0.00,,,0.00,WUHU216HW,2013-01-06 20:13:00,
2013-01-06 15:18:00,52.2,32.0,30.01,SSW,203,0.9,5.1,46,0.00,,,0.00,WUHU216HW,2013-01-06 20:18:00,
2013-01-06 15:23:00,52.2,32.5,30.01,NNE,23,2.2,2.2,47,0.00,,,0.00,WUHU216HW,2013-01-06 20:23:00,
2013-01-06 15:28:00,52.2,32.5,30.00,East,90,0.2,2.2,47,0.00,,,0.00,WUHU216HW,2013-01-06 20:28:00,
2013-01-06 15:34:00,52.2,32.5,30.00,East,90,1.3,5.6,47,0.00,,,0.00,WUHU216HW,2013-01-06 20:34:00,
2013-01-06 15:39:00,52.2,32.0,30.00,ENE,68,4.7,5.6,46,0.00,,,0.00,WUHU216HW,2013-01-06 20:39:00,
2013-01-06 15:44:00,52.2,32.0,30.00,ENE,68,4.7,4.7,46,0.00,,,0.00,WUHU216HW,2013-01-06 20:44:00,
2013-01-06 16:00:00,51.7,31.4,30.00,NNE,23,1.8,1.8,46,0.00,,,0.00,WUHU216HW,2013-01-06 21:00:00,
2013-01-06 16:05:00,51.5,31.3,30.00,East,90,0.4,4.0,46,0.00,,,0.00,WUHU216HW,2013-01-06 21:05:00,
2013-01-06 16:10:00,51.3,31.2,30.01,East,90,1.6,4.0,46,0.00,,,0.00,WUHU216HW,2013-01-06 21:10:00,
2013-01-06 16:15:00,51.1,31.5,30.01,NE,45,0.4,2.7,47,0.00,,,0.00,WUHU216HW,2013-01-06 21:15:00,
2013-01-06 16:20:00,50.9,31.3,30.01,SE,135,0.0,2.2,47,0.00,,,0.00,WUHU216HW,2013-01-06 21:20:00,
2013-01-06 16:25:00,50.8,30.6,30.01,ESE,113,1.1,2.5,46,0.00,,,0.00,WUHU216HW,2013-01-06 21:25:00,
2013-01-06 16:30:00,50.8,30.6,30.01,East,90,0.9,2.7,46,0.00,,,0.00,WUHU216HW,2013-01-06 21:30:00,
2013-01-06 16:35:00,50.6,31.1,30.01,ESE,113,0.4,2.7,47,0.00,,,0.00,WUHU216HW,2013-01-06 21:35:00,
2013-01-06 16:40:00,50.4,30.9,30.02,NE,45,2.0,3.4,47,0.00,,,0.00,WUHU216HW,2013-01-06 21:40:00,
2013-01-06 16:45:00,50.4,30.9,30.01,SE,135,0.4,5.8,47,0.00,,,0.00,WUHU216HW,2013-01-06 21:45:00,
2013-01-06 16:50:00,50.4,30.9,30.01,SE,135,0.4,5.8,47,0.00,,,0.00,WUHU216HW,2013-01-06 21:50:00,
2013-01-06 17:00:00,50.0,30.5,30.02,WSW,248,0.2,0.2,47,0.00,,,0.00,WUHU216HW,2013-01-06 22:00:00,
2013-01-06 17:05:00,49.9,30.3,30.02,ENE,68,2.2,2.2,47,0.00,,,0.00,WUHU216HW,2013-01-06 22:05:00,
2013-01-06 17:10:00,49.9,30.3,30.02,NNE,23,3.1,3.4,47,0.00,,,0.00,WUHU216HW,2013-01-06 22:10:00,
2013-01-06 17:15:00,49.7,30.3,30.01,ESE,113,1.6,3.4,47,0.00,,,0.00,WUHU216HW,2013-01-06 22:15:00,
2013-01-06 17:20:00,49.7,30.3,30.02,SE,135,0.4,1.6,47,0.00,,,0.00,WUHU216HW,2013-01-06 22:20:00,
2013-01-06 17:25:00,49.5,30.1,30.02,WSW,248,0.7,0.9,47,0.00,,,0.00,WUHU216HW,2013-01-06 22:25:00,
2013-01-06 17:30:00,49.3,29.9,30.02,ESE,113,0.0,0.7,47,0.00,,,0.00,WUHU216HW,2013-01-06 22:30:00,
2013-01-06 17:35:00,49.3,30.4,30.02,SSE,158,0.0,0.9,48,0.00,,,0.00,WUHU216HW,2013-01-06 22:35:00,
2013-01-06 17:40:00,49.1,30.3,30.02,SSE,158,0.0,0.9,48,0.00,,,0.00,WUHU216HW,2013-01-06 22:40:00,
2013-01-06 17:45:00,49.0,30.1,30.02,WSW,248,0.0,0.0,48,0.00,,,0.00,WUHU216HW,2013-01-06 22:45:00,
2013-01-06 17:46:00,49.0,30.1,30.02,WSW,248,0.0,0.0,48,0.00,,,0.00,WUHU216HW,2013-01-06 22:46:00,
2013-01-06 17:50:00,49.0,30.1,30.02,WSW,248,0.0,0.0,48,0.00,,,0.00,WUHU216HW,2013-01-06 22:50:00,
2013-01-06 17:55:00,49.0,30.1,30.02,WSW,248,0.0,0.0,48,0.00,,,0.00,WUHU216HW,2013-01-06 22:55:00,
2013-01-06 18:00:00,48.6,30.3,30.02,East,90,0.0,0.0,49,0.00,,,0.00,WUHU216HW,2013-01-06 23:00:00,
2013-01-06 18:05:00,48.2,29.9,30.03,East,90,0.0,0.0,49,0.00,,,0.00,WUHU216HW,2013-01-06 23:05:00,
2013-01-06 18:10:00,48.2,29.9,30.03,ESE,113,0.2,0.4,49,0.00,,,0.00,WUHU216HW,2013-01-06 23:10:00,
2013-01-06 18:15:00,48.2,29.9,30.03,ESE,113,0.0,0.4,49,0.00,,,0.00,WUHU216HW,2013-01-06 23:15:00,
2013-01-06 18:20:00,48.1,29.7,30.03,SE,135,0.9,0.9,49,0.00,,,0.00,WUHU216HW,2013-01-06 23:20:00,
2013-01-06 18:25:00,48.1,29.7,30.03,ESE,113,0.0,0.9,49,0.00,,,0.00,WUHU216HW,2013-01-06 23:25:00,
2013-01-06 18:30:00,48.1,30.2,30.04,SE,135,0.4,0.4,50,0.00,,,0.00,WUHU216HW,2013-01-06 23:30:00,
2013-01-06 18:35:00,48.1,30.2,30.04,ESE,113,0.0,0.9,50,0.00,,,0.00,WUHU216HW,2013-01-06 23:35:00,
2013-01-06 18:40:00,47.9,30.1,30.04,East,90,0.7,0.9,50,0.00,,,0.00,WUHU216HW,2013-01-06 23:40:00,
2013-01-06 18:45:00,47.9,30.1,30.04,ESE,113,0.4,0.7,50,0.00,,,0.00,WUHU216HW,2013-01-06 23:45:00,
2013-01-06 18:51:00,47.9,30.1,30.04,ESE,113,0.4,0.4,50,0.00,,,0.00,WUHU216HW,2013-01-06 23:51:00,
2013-01-06 19:00:00,47.7,30.0,30.05,East,90,0.0,0.0,50,0.00,,,0.00,WUHU216HW,2013-01-07 00:00:00,
2013-01-06 19:05:00,47.5,29.8,30.05,ESE,113,0.0,1.1,50,0.00,,,0.00,WUHU216HW,2013-01-07 00:05:00,
2013-01-06 19:10:00,47.5,29.8,30.05,ESE,113,0.0,1.1,50,0.00,,,0.00,WUHU216HW,2013-01-07 00:10:00,
2013-01-06 19:15:00,47.5,29.8,30.05,NE,45,0.0,0.0,50,0.00,,,0.00,WUHU216HW,2013-01-07 00:15:00,
2013-01-06 19:20:00,47.3,30.1,30.05,East,90,0.0,1.1,51,0.00,,,0.00,WUHU216HW,2013-01-07 00:20:00,
2013-01-06 19:25:00,47.5,30.3,30.05,ENE,68,0.0,1.1,51,0.00,,,0.00,WUHU216HW,2013-01-07 00:25:00,
2013-01-06 19:30:00,47.3,30.1,30.05,NE,45,0.4,1.1,51,0.00,,,0.00,WUHU216HW,2013-01-07 00:30:00,
2013-01-06 19:35:00,47.3,30.1,30.05,ESE,113,0.9,1.1,51,0.00,,,0.00,WUHU216HW,2013-01-07 00:35:00,
2013-01-06 19:40:00,47.3,30.1,30.05,ESE,113,0.9,0.9,51,0.00,,,0.00,WUHU216HW,2013-01-07 00:40:00,
2013-01-06 20:00:00,47.2,30.3,30.06,SE,135,0.4,0.4,52,0.00,,,0.00,WUHU216HW,2013-01-07 01:00:00,
2013-01-06 20:05:00,47.2,29.9,30.06,NE,45,0.0,0.4,51,0.00,,,0.00,WUHU216HW,2013-01-07 01:05:00,
2013-01-06 20:10:00,47.2,29.9,30.06,NE,45,0.0,0.2,51,0.00,,,0.00,WUHU216HW,2013-01-07 01:10:00,
2013-01-06 20:15:00,47.0,30.3,30.06,East,90,0.0,0.4,52,0.00,,,0.00,WUHU216HW,2013-01-07 01:15:00,
2013-01-06 20:20:00,46.8,30.1,30.07,ESE,113,0.2,1.1,52,0.00,,,0.00,WUHU216HW,2013-01-07 01:20:00,
2013-01-06 20:25:00,47.0,30.3,30.06,SE,135,0.7,1.1,52,0.00,,,0.00,WUHU216HW,2013-01-07 01:25:00,
2013-01-06 20:30:00,47.2,30.3,30.07,SW,225,0.4,1.1,52,0.00,,,0.00,WUHU216HW,2013-01-07 01:30:00,
2013-01-06 20:35:00,47.2,30.3,30.07,SE,135,0.4,1.1,52,0.00,,,0.00,WUHU216HW,2013-01-07 01:35:00,
2013-01-06 20:40:00,47.2,30.3,30.07,ESE,113,0.4,1.1,52,0.00,,,0.00,WUHU216HW,2013-01-07 01:40:00,
2013-01-06 20:45:00,47.2,30.3,30.07,SE,135,0.2,1.1,52,0.00,,,0.00,WUHU216HW,2013-01-07 01:45:00,
2013-01-06 20:49:00,47.2,30.3,30.07,East,90,0.2,0.2,52,0.00,,,0.00,WUHU216HW,2013-01-07 01:49:00,
2013-01-06 20:50:00,47.2,30.3,30.07,East,90,0.2,1.1,52,0.00,,,0.00,WUHU216HW,2013-01-07 01:50:00,
2013-01-06 20:55:00,47.2,30.3,30.07,East,90,0.2,1.1,52,0.00,,,0.00,WUHU216HW,2013-01-07 01:55:00,
2013-01-06 21:00:00,47.0,30.3,30.07,ESE,113,0.9,0.9,52,0.00,,,0.00,WUHU216HW,2013-01-07 02:00:00,
2013-01-06 21:05:00,47.2,30.3,30.07,SSW,203,1.8,2.0,52,0.00,,,0.00,WUHU216HW,2013-01-07 02:05:00,
2013-01-06 21:10:00,47.2,29.9,30.08,SE,135,1.1,2.2,51,0.00,,,0.00,WUHU216HW,2013-01-07 02:10:00,
2013-01-06 21:15:00,47.3,30.1,30.08,ESE,113,0.2,2.2,51,0.00,,,0.00,WUHU216HW,2013-01-07 02:15:00,
2013-01-06 21:20:00,47.2,29.9,30.08,South,180,0.4,3.4,51,0.00,,,0.00,WUHU216HW,2013-01-07 02:20:00,
2013-01-06 21:25:00,47.2,29.9,30.08,West,270,0.4,3.4,51,0.00,,,0.00,WUHU216HW,2013-01-07 02:25:00,
2013-01-06 21:30:00,47.2,29.9,30.07,SSE,158,0.4,1.3,51,0.00,,,0.00,WUHU216HW,2013-01-07 02:30:00,
2013-01-06 21:35:00,47.2,29.9,30.07,SSE,158,0.0,1.8,51,0.00,,,0.00,WUHU216HW,2013-01-07 02:35:00,
2013-01-06 21:40:00,47.0,29.7,30.08,ENE,68,0.7,1.8,51,0.00,,,0.00,WUHU216HW,2013-01-07 02:40:00,
2013-01-06 21:45:00,46.8,29.6,30.08,NE,45,0.4,1.6,51,0.00,,,0.00,WUHU216HW,2013-01-07 02:45:00,
2013-01-06 21:50:00,46.8,29.6,30.08,NE,45,0.4,1.8,51,0.00,,,0.00,WUHU216HW,2013-01-07 02:50:00,
2013-01-06 21:55:00,46.4,29.7,30.08,South,180,0.0,1.8,52,0.00,,,0.00,WUHU216HW,2013-01-07 02:55:00,
2013-01-06 22:00:00,46.4,29.7,30.08,ESE,113,0.4,1.8,52,0.00,,,0.00,WUHU216HW,2013-01-07 03:00:00,
2013-01-06 22:05:00,46.4,29.3,30.08,NE,45,1.6,3.4,51,0.00,,,0.00,WUHU216HW,2013-01-07 03:05:00,
2013-01-06 22:10:00,46.3,29.1,30.08,ENE,68,1.3,3.4,51,0.00,,,0.00,WUHU216HW,2013-01-07 03:10:00,
2013-01-06 22:15:00,46.1,28.9,30.08,East,90,0.2,2.5,51,0.00,,,0.00,WUHU216HW,2013-01-07 03:15:00,
2013-01-06 22:20:00,46.1,28.9,30.08,ESE,113,0.2,0.9,51,0.00,,,0.00,WUHU216HW,2013-01-07 03:20:00,
2013-01-06 22:25:00,45.9,28.8,30.09,ESE,113,0.0,0.9,51,0.00,,,0.00,WUHU216HW,2013-01-07 03:25:00,
2013-01-06 22:30:00,45.7,29.1,30.09,SSE,158,0.0,0.9,52,0.00,,,0.00,WUHU216HW,2013-01-07 03:30:00,
2013-01-06 22:35:00,45.5,28.9,30.09,SSE,158,0.0,0.4,52,0.00,,,0.00,WUHU216HW,2013-01-07 03:35:00,
2013-01-06 22:40:00,45.4,28.7,30.09,ESE,113,0.0,0.7,52,0.00,,,0.00,WUHU216HW,2013-01-07 03:40:00,
2013-01-06 22:46:00,45.0,28.5,30.10,ESE,113,0.0,0.7,52,0.00,,,0.00,WUHU216HW,2013-01-07 03:46:00,
2013-01-06 22:51:00,44.8,28.7,30.10,ESE,113,0.0,0.0,53,0.00,,,0.00,WUHU216HW,2013-01-07 03:51:00,
2013-01-06 22:56:00,44.5,28.4,30.10,East,90,0.0,1.1,53,0.00,,,0.00,WUHU216HW,2013-01-07 03:56:00,
2013-01-06 23:01:00,44.3,28.2,30.10,East,90,0.0,1.1,53,0.00,,,0.00,WUHU216HW,2013-01-07 04:01:00,
2013-01-06 23:06:00,43.9,27.9,30.10,East,90,0.0,0.0,53,0.00,,,0.00,WUHU216HW,2013-01-07 04:06:00,
2013-01-06 23:11:00,43.6,27.6,30.10,East,90,0.0,0.0,53,0.00,,,0.00,WUHU216HW,2013-01-07 04:11:00,
2013-01-06 23:15:00,43.4,27.4,30.11,East,90,0.0,0.0,53,0.00,,,0.00,WUHU216HW,2013-01-07 04:15:00,
2013-01-06 23:20:00,43.2,27.2,30.11,East,90,0.2,0.2,53,0.00,,,0.00,WUHU216HW,2013-01-07 04:20:00,
2013-01-06 23:25:00,43.0,27.5,30.11,East,90,0.0,0.2,54,0.00,,,0.00,WUHU216HW,2013-01-07 04:25:00,
2013-01-06 23:30:00,42.8,27.3,30.11,ENE,68,0.0,0.7,54,0.00,,,0.00,WUHU216HW,2013-01-07 04:30:00,
2013-01-06 23:35:00,42.8,27.7,30.12,ENE,68,0.0,0.7,55,0.00,,,0.00,WUHU216HW,2013-01-07 04:35:00,
2013-01-06 23:40:00,42.8,27.7,30.12,ENE,68,0.0,0.0,55,0.00,,,0.00,WUHU216HW,2013-01-07 04:40:00,
2013-01-06 23:46:00,42.7,27.5,30.12,ENE,68,0.0,0.0,55,0.00,,,0.00,WUHU216HW,2013-01-07 04:46:00,
2013-01-06 23:51:00,42.7,27.5,30.12,ENE,68,0.0,0.0,55,0.00,,,0.00,WUHU216HW,2013-01-07 04:51:00,
2013-01-06 23:56:00,42.8,27.7,30.12,East,90,0.0,0.9,55,0.00,,,0.00,WUHU216HW,2013-01-07 04:56:00,